Location: ?????????
(54.7630°N, 39.4991°E)
Time: 08:05:53
(UTC+00:00)

Gbstr 26 Del rocket - Pass Details

Date: 14 April 2026
Orbit: 490 x 1216 km, 51.8° (Epoch: 9 May)

Event Time Altitude Azimuth Distance (km) Brightness Sun altitude
Exits shadow 23:38:01 52° 167° (SSE) 623 2.8 -19.5°
Drops below altitude 10° 23:41:32 10° 96° (E) 1,683 5.7 -19.2°
Sets 23:43:43 0° 92° (E) 2,583 6.8 -19.0°
